Wind_Speed
6 12 13 14 16 13 10 9 10 8 8 14 9 6 9 8 8 10 13 8 7 9 13 17 20 22 22 25 25 23 19 19 12 16 13 11 13 17 18 16 14 15 14
16 13 12 16 11 9 8 11 16 15 8 15 9 7 8 9 11 13 14 10 9 10 14 18 21 22 25 26 25 23 22 22 19 10 8 11 14 15 18 20 20 19 17
15 15 22 25 20 19 19 15 7 4 9 12 12 11 11 11 11 14 10 9 11 15 18 19 19 21 23 24 24 24 23 24 22 19 14 10 15 17 18 19 16 14 15
15 17 20 21 18 18 11 9 17 17 18 14 12 9 13 10 11 10 11 13 17 21 20 17 19 19 21 24 24 22 19 18 19 18 20 16 12 14 14 11 15 15 15
15 15 14 14 17 16 18 20 19 17 18 16 9 11 11 10 8 11 13 20 22 20 20 18 20 19 20 20 20 20 19 15 17 15 13 13 13 13 12 11 16 19 22
11 10 13 17 18 17 17 19 18 18 5 9 11 11 5 8 10 13 20 19 19 20 19 22 21 20 21 20 20 19 20 18 15 14 11 9 14 15 13 16 15 12 4
6 6 12 19 19 16 15 14 14 9 5 12 8 3 5 9 11 16 16 16 17 18 19 20 21 19 23 24 24 21 22 21 19 19 18 15 17 18 18 18 16 14 14
5 12 16 18 17 17 15 14 4 4 12 8 1 3 9 12 13 13 14 17 16 17 18 21 22 24 22 22 23 21 19 16 16 17 20 21 21 20 19 19 18 18 17
11 12 14 15 16 15 13 11 10 13 4 1 4 8 10 9 10 15 15 16 20 23 22 21 21 22 21 21 22 22 16 19 16 14 13 12 11 10 12 13 13 12 9
10 11 12 13 13 14 11 10 11 3 4 3 5 7 9 10 15 14 16 20 21 19 19 21 19 20 23 24 21 16 14 19 20 17 16 17 18 20 20 21 24 18 16
12 11 11 13 14 14 12 10 2 6 5 4 6 8 8 13 17 16 18 18 18 19 20 20 23 22 18 22 17 19 17 17 16 16 18 17 14 12 12 13 16 22 20
12 10 10 12 12 9 5 5 8 4 3 4 8 8 9 14 17 17 18 17 18 19 19 22 20 20 18 17 17 16 14 11 11 12 13 13 12 13 12 12 14 18 21
8 8 11 8 9 7 4 4 5 3 5 6 8 9 11 15 17 18 19 18 19 17 17 15 16 17 17 18 17 15 15 15 13 12 11 12 13 12 10 9 9 11 17
9 10 8 9 9 8 2 4 4 5 7 7 9 9 11 13 17 20 19 21 17 17 17 14 16 17 16 18 19 21 20 18 15 13 13 13 12 12 10 11 6 3 2
9 8 8 6 7 4 3 3 6 7 7 9 9 9 11 13 15 17 16 17 17 18 14 15 17 20 18 18 20 21 22 20 20 19 17 15 14 14 13 14 12 10 9
13 10 7 6 4 1 1 4 7 7 8 9 9 8 9 10 12 14 12 14 14 14 14 15 16 19 18 17 18 20 21 21 21 20 19 17 16 15 14 15 15 14 13
15 11 11 8 6 5 3 7 10 9 8 9 8 8 8 7 12 10 10 11 13 13 14 14 15 16 16 15 17 16 17 20 19 20 20 19 19 17 16 15 15 15 14
13 13 13 14 9 5 5 7 8 8 10 10 10 7 7 8 9 8 8 11 13 14 14 13 14 14 16 14 16 17 18 20 19 18 20 20 21 18 16 16 14 14 13
13 13 15 8 6 6 7 6 6 9 10 8 10 9 8 9 8 8 10 9 10 11 12 13 11 12 15 13 14 16 17 19 18 17 19 20 20 20 18 18 16 15 15
13 14 10 7 6 8 9 7 8 8 8 10 11 10 10 9 9 9 9 9 9 9 10 11 12 11 13 13 13 15 16 19 19 17 17 18 18 18 19 16 16 14 15
15 13 10 10 10 12 11 10 10 8 12 13 13 12 11 11 11 10 10 10 9 9 10 10 12 12 12 14 13 15 15 16 16 16 15 17 17 18 16 15 14 14 13
14 14 13 13 11 11 11 13 15 11 11 12 11 9 11 12 12 12 12 10 10 9 9 10 10 12 11 12 12 14 16 16 15 15 14 14 15 16 15 14 12 12 14
17 17 16 15 14 13 14 15 14 15 14 11 12 13 12 14 12 12 11 10 10 9 9 10 10 11 10 10 11 11 16 16 14 12 12 12 14 14 13 12 12 10 13
17 17 17 15 15 15 16 16 15 14 15 13 11 10 10 9 11 11 10 10 10 10 10 9 9 10 11 11 11 10 15 14 12 9 9 10 12 12 12 11 10 10 11
18 19 20 21 19 20 17 16 17 16 15 17 10 10 10 9 10 10 10 10 10 10 10 10 10 10 10 11 11 11 13 12 11 8 7 8 9 9 9 9 10 9 10
18 21 23 24 24 23 21 17 17 18 15 13 14 13 12 11 11 10 9 10 10 10 10 10 11 8 9 10 10 10 11 11 10 8 7 7 8 8 5 8 8 8 8
Wind_Direction
294 307 301 297 296 282 248 262 288 285 327 326 307 302 319 328 335 336 330 329 325 336 335 335 333 332 328 329 327 318 311 281 275 293 277 284 301 301 311 329 343 326 290
320 295 304 314 290 260 267 282 292 287 289 306 284 294 306 313 328 322 307 295 312 332 333 331 328 325 322 320 317 312 309 308 285 269 264 295 307 316 312 307 310 310 304
358 351 341 331 307 284 294 299 281 270 282 311 280 292 302 306 312 302 284 300 321 331 332 330 327 327 319 315 309 302 296 295 287 273 267 272 295 308 314 313 305 300 306
8 358 353 346 327 314 292 252 257 263 311 284 266 279 295 303 292 278 293 311 324 328 329 324 326 325 317 311 306 303 304 301 298 280 272 279 281 299 307 299 307 311 311
4 4 5 4 348 327 298 280 269 294 299 280 284 306 301 287 290 299 314 323 325 325 322 318 320 318 315 307 303 308 303 300 301 289 276 273 271 278 278 290 297 308 303
358 355 352 359 350 330 301 281 299 310 327 315 314 308 309 319 315 323 323 321 320 318 314 316 315 315 315 306 303 299 295 297 294 294 264 250 261 264 267 284 291 300 307
350 12 3 354 345 326 315 303 296 294 274 340 307 336 333 349 330 320 319 322 317 315 316 317 319 313 312 314 311 301 296 291 280 273 275 270 270 272 276 276 277 269 263
10 360 346 346 344 332 317 307 322 309 326 281 4 17 357 347 333 333 334 330 324 323 325 324 316 312 312 309 308 300 303 306 299 280 271 274 275 276 271 269 273 271 275
352 345 342 336 330 325 326 321 275 294 263 175 44 11 360 356 354 347 344 344 338 332 330 320 319 315 317 313 317 310 299 303 305 291 283 274 265 264 261 260 252 256 253
344 338 333 333 323 321 330 332 324 252 169 106 42 21 359 355 353 354 344 341 338 329 330 326 328 325 320 316 306 296 293 290 303 304 299 293 283 275 268 258 258 247 245
334 328 332 334 332 326 318 303 298 158 124 49 27 13 6 359 357 358 348 344 341 336 332 330 335 335 342 332 328 321 295 301 299 297 299 303 299 292 279 265 257 249 236
333 328 340 340 348 1 22 90 126 121 72 40 11 12 2 359 1 359 354 350 343 336 334 338 347 344 347 353 357 355 4 344 321 322 308 307 307 304 293 280 273 270 258
319 330 338 353 2 356 18 133 122 82 39 21 9 2 358 354 359 358 357 348 345 340 348 350 351 352 358 8 1 7 17 15 8 2 345 335 334 334 326 307 298 277 260
308 334 340 343 352 343 11 121 68 35 23 12 3 358 349 349 357 353 354 354 2 1 357 4 9 4 1 7 8 11 16 12 2 351 349 356 359 357 3 0 329 358 324
298 320 333 351 3 26 102 83 21 9 359 352 346 345 338 347 352 342 349 360 353 5 7 19 12 12 3 3 3 6 12 8 5 6 2 3 358 10 15 24 41 48 37
298 293 310 312 313 279 99 347 2 353 350 339 332 330 328 340 338 344 352 359 0 359 14 12 8 13 6 1 360 357 5 6 3 6 7 9 359 8 22 32 41 46 39
286 284 294 283 264 284 302 344 335 339 346 350 344 315 315 331 338 348 356 0 11 8 22 15 13 15 5 3 2 0 357 3 8 13 10 9 14 17 28 28 33 42 40
277 289 285 296 250 276 284 305 305 325 337 339 347 319 303 321 339 348 351 354 10 18 18 15 14 12 10 7 6 9 5 5 10 15 19 22 22 7 14 22 32 37 38
288 290 307 280 241 251 264 281 289 321 319 315 325 323 310 311 324 336 346 351 2 6 9 10 9 10 8 10 12 12 13 12 13 17 20 22 22 15 14 19 30 37 31
286 289 297 233 262 249 275 274 279 292 305 311 304 305 308 291 308 322 336 332 342 351 357 1 2 357 2 4 8 9 9 11 14 17 17 17 18 23 17 20 24 25 22
284 279 269 267 271 273 258 275 276 272 300 299 304 294 296 289 301 311 317 317 325 337 346 350 356 353 353 358 1 4 5 6 9 11 12 14 15 15 16 17 19 24 22
275 268 270 276 276 286 283 277 271 267 289 294 303 297 292 293 300 302 303 310 315 322 328 336 342 350 347 350 352 357 360 359 2 3 5 7 9 11 10 15 20 28 21
253 255 265 267 265 275 281 283 274 263 275 284 296 299 302 288 294 297 300 311 307 313 317 324 331 341 344 343 340 346 350 351 353 354 357 360 3 5 8 13 19 27 22
245 251 258 266 264 266 278 282 279 272 265 272 281 293 299 292 289 296 300 306 304 309 308 314 319 324 337 337 336 341 344 346 348 352 354 356 355 358 5 12 18 20 17
249 250 256 260 263 262 272 280 274 271 274 271 267 296 296 296 285 294 296 297 302 301 307 307 308 309 322 327 331 335 340 341 343 346 345 347 352 349 4 14 16 19 25
264 255 261 262 262 263 260 269 271 272 266 266 276 283 284 289 292 288 292 293 294 295 299 296 304 296 307 320 323 326 331 335 337 337 336 338 346 353 359 17 20 23 29
Height
847 845 843 841 838 836 835 833 832 832 832 831 826 823 823 822 819 817 816 812 810 808 806 804 802 800 797 794 791 788 785 784 778 775 775 774 773 772 770 768 767 765 763
845 843 841 839 836 834 832 830 829 827 827 826 823 819 817 817 816 814 814 809 807 803 801 799 797 794 791 788 786 783 781 778 775 771 771 770 770 769 768 766 764 763 762
843 843 840 838 834 832 829 828 828 825 821 820 820 820 815 813 811 811 810 807 804 800 797 794 792 789 785 782 780 777 774 772 770 768 765 765 765 764 763 762 761 759 758
841 839 837 834 832 830 828 825 822 821 820 815 816 812 812 809 808 807 806 803 799 796 793 790 788 785 782 778 775 771 768 765 763 761 760 759 760 760 759 759 757 755 753
838 836 834 832 830 828 825 821 817 817 816 815 813 811 808 806 805 805 803 799 795 792 789 786 784 781 778 774 771 767 764 761 758 756 754 754 755 755 755 755 754 752 750
836 834 832 828 826 824 820 817 816 813 811 814 810 808 806 805 804 803 799 795 792 788 785 782 779 776 772 769 766 763 761 757 755 753 750 750 749 749 750 750 750 749 747
833 832 828 825 822 819 816 814 812 811 810 809 807 806 804 803 802 799 796 792 789 785 781 778 774 771 767 763 759 756 754 752 750 749 747 745 745 745 745 745 745 745 743
830 826 824 822 819 816 813 810 808 809 807 807 805 804 803 802 799 796 793 789 785 782 778 774 770 765 762 759 755 750 748 745 743 742 740 739 739 739 740 740 740 739 739
826 825 823 819 816 813 810 808 806 806 805 805 804 803 801 799 797 794 790 786 783 778 774 770 766 761 758 754 750 747 744 741 739 737 735 734 733 734 734 735 734 735 733
825 822 820 817 814 811 808 806 805 803 803 803 803 801 800 798 795 792 788 783 779 775 771 766 762 758 753 749 745 742 740 737 734 731 730 729 728 727 728 729 728 729 730
823 820 817 815 812 809 806 804 802 802 802 803 801 800 798 796 792 789 786 781 777 773 768 763 759 755 751 747 742 738 734 732 730 728 726 723 722 721 720 721 721 722 723
820 818 815 812 809 806 803 802 802 802 802 801 800 798 796 793 791 788 784 780 776 772 767 762 758 754 749 745 741 737 733 729 727 725 723 720 719 717 715 715 714 713 712
817 814 812 810 808 806 804 803 802 801 800 799 798 796 794 792 789 786 782 778 774 770 766 762 758 754 750 745 741 737 733 730 727 725 722 719 716 713 711 710 708 706 705
813 811 809 807 806 804 803 802 801 800 799 797 795 793 792 790 787 783 780 776 772 769 765 762 758 754 750 747 742 738 734 731 728 725 722 719 715 712 709 706 703 702 702
809 808 807 805 804 802 801 801 800 798 797 795 793 791 790 788 786 783 780 776 773 769 765 762 759 754 750 747 744 740 736 733 729 725 722 719 715 712 709 706 704 702 702
807 805 804 803 802 801 800 799 798 796 795 793 791 790 788 786 785 782 779 777 773 769 766 764 760 757 753 750 747 743 739 736 732 728 724 720 717 714 711 709 706 704 703
803 802 800 800 799 799 798 796 795 794 793 791 789 787 786 785 783 781 778 776 773 769 767 765 762 758 755 753 750 746 743 740 735 731 727 723 719 716 714 711 709 707 705
799 798 796 796 795 795 795 794 793 791 790 788 787 786 784 783 781 779 777 774 772 769 767 765 763 760 757 754 751 748 744 740 736 733 729 725 722 719 716 714 711 709 707
794 794 792 791 792 792 791 790 790 789 787 786 785 783 782 781 780 778 775 773 771 769 767 765 762 760 757 754 752 749 746 742 738 734 731 728 725 722 719 716 713 711 709
791 790 789 789 789 789 788 787 787 786 785 783 782 781 779 778 777 775 773 772 770 768 766 764 762 759 757 754 751 749 745 742 739 736 733 730 728 725 722 719 716 714 712
786 786 786 786 786 785 784 783 783 782 781 780 778 777 776 775 774 772 771 769 768 766 765 762 760 758 756 754 751 748 746 743 740 737 735 732 729 726 724 721 719 716 713
781 781 781 781 781 780 780 780 779 778 777 776 775 773 773 771 770 769 768 767 766 764 763 761 759 757 755 753 751 748 746 743 740 737 735 733 730 728 725 722 720 717 715
775 776 776 776 776 776 776 775 774 774 773 772 771 770 769 767 767 766 764 763 763 762 761 759 757 755 753 751 749 747 745 742 739 737 735 733 731 728 726 723 721 718 716
769 770 771 771 771 771 771 770 769 768 767 767 766 765 764 763 762 762 761 760 759 758 757 756 755 753 752 750 748 746 744 741 739 737 735 733 730 728 726 723 721 719 717
764 765 765 765 765 765 765 764 763 762 762 761 761 760 760 759 758 758 757 756 755 755 754 753 752 751 749 747 746 744 742 740 738 736 734 732 730 728 726 724 722 720 717
759 759 759 759 759 759 759 758 757 756 756 755 755 755 755 754 754 753 752 752 751 750 750 749 748 748 747 745 744 742 740 738 736 734 732 731 729 727 726 724 722 720 719